timestamp,surface_pressure_avg,surface_temp_avg,battery_voltage,lat,long
2018-10-10 00:00:00+00:00,379.6046,11.3,13.05,47.84626,-54.09684
2018-10-10 00:10:00+00:00,373.2478,11.3,12.97,47.84626,-54.09684
2018-10-10 00:20:00+00:00,373.5264,11.35,13.05,47.84626,-54.09684
2018-10-10 00:30:00+00:00,375.2347,11.38,13.05,47.84626,-54.09684
2018-10-10 00:40:00+00:00,366.993,11.37,13.05,47.84626,-54.09684
2018-10-10 00:50:00+00:00,366.1262,11.38,13.05,47.84626,-54.09684
2018-10-10 01:00:00+00:00,367.3797,11.38,13.05,47.84626,-54.09684
2018-10-10 01:10:00+00:00,362.0829,11.38,12.97,47.84626,-54.09684
2018-10-10 01:20:00+00:00,353.988,11.38,13.05,47.84626,-54.09684
2018-10-10 01:30:00+00:00,351.303,11.38,13.05,47.84626,-54.09684
2018-10-10 01:40:00+00:00,347.9197,11.39,13.05,47.84626,-54.09684
2018-10-10 01:50:00+00:00,341.478,11.38,13.05,47.84626,-54.09684
2018-10-10 02:00:00+00:00,334.9179,11.39,12.97,47.84626,-54.09684
2018-10-10 02:10:00+00:00,331.2863,11.39,12.97,47.84626,-54.09684
2018-10-10 02:20:00+00:00,326.8364,11.4,12.97,47.84626,-54.09684
2018-10-10 02:30:00+00:00,313.823,11.41,13.05,47.84626,-54.09684
2018-10-10 02:40:00+00:00,302.163,11.41,13.05,47.84626,-54.09684
2018-10-10 02:50:00+00:00,293.1981,11.4,13.05,47.84626,-54.09684
2018-10-10 03:00:00+00:00,283.0597,11.4,12.97,47.84626,-54.09684
2018-10-10 03:10:00+00:00,273.358,11.39,12.89,47.84626,-54.09684
2018-10-10 03:20:00+00:00,263.9131,11.38,12.97,47.84626,-54.09684
2018-10-10 03:30:00+00:00,255.3448,11.36,12.97,47.84626,-54.09684
2018-10-10 03:40:00+00:00,243.0698,11.33,13.05,47.84626,-54.09684
2018-10-10 03:50:00+00:00,230.1964,11.3,13.05,47.84626,-54.09684
2018-10-10 04:00:00+00:00,220.7298,11.3,12.97,47.84626,-54.09684
2018-10-10 04:10:00+00:00,213.7831,11.3,12.89,47.84626,-54.09684
2018-10-10 04:20:00+00:00,204.8048,11.3,12.97,47.84626,-54.09684
2018-10-10 04:30:00+00:00,196.7314,11.3,12.97,47.84626,-54.09684
2018-10-10 04:40:00+00:00,191.1997,11.3,12.97,47.84626,-54.09684
2018-10-10 04:50:00+00:00,186.8731,11.3,12.97,47.84626,-54.09684
2018-10-10 05:00:00+00:00,181.5414,11.3,12.97,47.84626,-54.09684
2018-10-10 05:10:00+00:00,176.7231,11.3,12.89,47.84626,-54.09684
2018-10-10 05:20:00+00:00,174.3598,11.29,12.97,47.84626,-54.09684
2018-10-10 05:30:00+00:00,172.2397,11.3,12.97,47.84626,-54.09684
2018-10-10 05:40:00+00:00,175.5248,11.3,12.97,47.84626,-54.09684
2018-10-10 05:50:00+00:00,177.3682,11.3,12.97,47.84626,-54.09684
2018-10-10 06:00:00+00:00,172.6182,11.3,12.89,47.84626,-54.09684
2018-10-10 06:10:00+00:00,175.9548,11.3,12.81,47.84626,-54.09684
2018-10-10 06:20:00+00:00,182.2165,11.29,12.89,47.84626,-54.09684
2018-10-10 06:30:00+00:00,183.1998,11.29,12.89,47.84626,-54.09684
2018-10-10 06:40:00+00:00,185.8598,11.29,12.89,47.84626,-54.09684
2018-10-10 06:50:00+00:00,194.6481,11.29,12.97,47.84626,-54.09684
2018-10-10 07:00:00+00:00,201.4881,11.21,12.89,47.84626,-54.09684
2018-10-10 07:10:00+00:00,202.5065,11.2,12.81,47.84626,-54.09684
2018-10-10 07:20:00+00:00,207.0564,11.19,12.89,47.84626,-54.09684
2018-10-10 07:30:00+00:00,213.9015,11.1,12.89,47.84626,-54.09684
2018-10-10 07:40:00+00:00,215.6864,11.09,12.89,47.84626,-54.09684
2018-10-10 07:50:00+00:00,220.6981,11.07,12.89,47.84626,-54.09684
2018-10-10 08:00:00+00:00,226.2881,11.1,12.81,47.84626,-54.09684
2018-10-10 08:10:00+00:00,231.0815,11.1,12.81,47.84626,-54.09684
2018-10-10 08:20:00+00:00,239.8947,11.1,12.81,47.84626,-54.09684
2018-10-10 08:30:00+00:00,245.0514,11.07,12.89,47.84626,-54.09684
2018-10-10 08:40:00+00:00,246.4064,10.92,12.89,47.84626,-54.09684
2018-10-10 08:50:00+00:00,250.8047,11.16,12.89,47.84626,-54.09684
2018-10-10 09:00:00+00:00,256.1297,11.19,12.81,47.84626,-54.09684
2018-10-10 09:10:00+00:00,262.2347,11.15,12.81,47.84626,-54.09684
2018-10-10 09:20:00+00:00,267.2365,11.13,12.81,47.84626,-54.09684
2018-10-10 09:30:00+00:00,274.3514,11.1,12.89,47.84626,-54.09684
2018-10-10 09:40:00+00:00,280.0547,11.12,12.89,47.84626,-54.09684
2018-10-10 09:50:00+00:00,293.823,11.17,12.89,47.84626,-54.09684
2018-10-10 10:00:00+00:00,310.7064,11.19,12.81,47.84626,-54.09684
2018-10-10 10:10:00+00:00,316.4947,11.2,12.81,47.84626,-54.09684
2018-10-10 10:20:00+00:00,317.4547,11.19,12.89,47.84626,-54.09684
2018-10-10 10:30:00+00:00,331.618,11.2,12.89,47.84626,-54.09684
2018-10-10 10:40:00+00:00,347.0746,11.2,12.89,47.84626,-54.09684
2018-10-10 10:50:00+00:00,347.2196,11.2,12.89,47.84626,-54.09684
2018-10-10 11:00:00+00:00,353.1746,11.2,12.89,47.84626,-54.09684
2018-10-10 11:10:00+00:00,367.418,11.2,12.81,47.84626,-54.09684
2018-10-10 11:20:00+00:00,370.903,11.2,12.89,47.84626,-54.09684
2018-10-10 11:30:00+00:00,369.5797,11.19,12.89,47.84626,-54.09684
2018-10-10 11:40:00+00:00,384.8546,11.2,12.97,47.84626,-54.09684
2018-10-10 11:50:00+00:00,392.1696,11.2,12.97,47.84626,-54.09684
2018-10-10 12:00:00+00:00,381.2928,11.2,12.97,47.84626,-54.09684
2018-10-10 12:10:00+00:00,386.5729,11.2,12.89,47.84626,-54.09684
2018-10-10 12:20:00+00:00,393.6429,11.2,12.97,47.84626,-54.09684
2018-10-10 12:30:00+00:00,388.8379,11.2,13.05,47.84626,-54.09684
2018-10-10 12:40:00+00:00,382.0979,11.2,13.05,47.84626,-54.09684
2018-10-10 12:50:00+00:00,391.5812,11.22,13.13,47.84626,-54.09684
2018-10-10 13:00:00+00:00,391.1312,11.23,13.21,47.84626,-54.09684
2018-10-10 13:10:00+00:00,371.9513,11.2,13.13,47.84626,-54.09684
2018-10-10 13:20:00+00:00,373.7213,11.22,13.21,47.84626,-54.09684
2018-10-10 13:30:00+00:00,377.8079,11.25,13.29,47.84626,-54.09684
2018-10-10 13:40:00+00:00,365.5912,11.2,13.37,47.84626,-54.09684
2018-10-10 13:50:00+00:00,355.7096,11.24,13.53,47.84626,-54.09684
2018-10-10 14:00:00+00:00,358.3729,11.27,13.53,47.84626,-54.09684
2018-10-10 14:10:00+00:00,357.1013,11.3,13.44,47.84626,-54.09684
2018-10-10 14:20:00+00:00,341.3547,11.28,13.6,47.84626,-54.09684
2018-10-10 14:30:00+00:00,333.1813,11.29,13.53,47.84626,-54.09684
2018-10-10 14:40:00+00:00,330.0347,11.3,13.6,47.84626,-54.09684
2018-10-10 14:50:00+00:00,316.4014,11.3,13.6,47.84626,-54.09684
2018-10-10 15:00:00+00:00,305.743,11.3,13.53,47.84626,-54.09684
2018-10-10 15:10:00+00:00,292.7646,11.3,13.44,47.84626,-54.09684
2018-10-10 15:20:00+00:00,288.368,11.3,13.53,47.84626,-54.09684
2018-10-10 15:30:00+00:00,275.6281,11.3,13.92,47.84626,-54.09684
2018-10-10 15:40:00+00:00,262.438,11.24,13.84,47.84626,-54.09684
2018-10-10 15:50:00+00:00,256.8181,11.26,13.84,47.84626,-54.09684
2018-10-10 16:00:00+00:00,250.2964,11.28,13.68,47.84626,-54.09684
2018-10-10 16:10:00+00:00,235.8231,11.2,13.6,47.84626,-54.09684
2018-10-10 16:20:00+00:00,219.1748,11.2,13.68,47.84626,-54.09684
2018-10-10 16:30:00+00:00,208.2498,11.2,13.68,47.84626,-54.09684
2018-10-10 16:40:00+00:00,202.8514,11.2,13.84,47.84626,-54.09684
2018-10-10 16:50:00+00:00,201.4881,11.2,13.84,47.84626,-54.09684
2018-10-10 17:00:00+00:00,193.8815,11.1,14.32,47.84626,-54.09684
2018-10-10 17:10:00+00:00,184.5214,11.1,14.24,47.84626,-54.09684
2018-10-10 17:20:00+00:00,178.2348,11.1,14.8,47.84626,-54.09684
2018-10-10 17:30:00+00:00,174.7215,11.19,14.48,47.84626,-54.09684
2018-10-10 17:40:00+00:00,174.1281,11.2,14.8,47.84626,-54.09684
2018-10-10 17:50:00+00:00,174.0432,11.2,14.72,47.84626,-54.09684
2018-10-10 18:00:00+00:00,174.4365,11.2,14.4,47.84626,-54.09684
2018-10-10 18:10:00+00:00,169.8998,11.2,14.16,47.84626,-54.09684
2018-10-10 18:20:00+00:00,167.6682,11.2,14.24,47.84626,-54.09684
2018-10-10 18:30:00+00:00,174.7215,11.2,14.32,47.84626,-54.09684
2018-10-10 18:40:00+00:00,175.8348,11.2,14.48,47.84626,-54.09684
2018-10-10 18:50:00+00:00,171.2065,11.2,14.4,47.84626,-54.09684
2018-10-10 19:00:00+00:00,176.1548,11.2,14.32,47.84626,-54.09684
2018-10-10 19:10:00+00:00,187.6798,11.2,14.08,47.84626,-54.09684
2018-10-10 19:20:00+00:00,190.9381,11.22,14.16,47.84626,-54.09684
2018-10-10 19:30:00+00:00,196.4565,11.2,14.08,47.84626,-54.09684
2018-10-10 19:40:00+00:00,207.7498,11.2,14.16,47.84626,-54.09684
2018-10-10 19:50:00+00:00,210.3864,11.2,14.16,47.84626,-54.09684
2018-10-10 20:00:00+00:00,209.7848,11.2,14.0,47.84626,-54.09684
2018-10-10 20:10:00+00:00,214.5581,11.2,13.92,47.84626,-54.09684
2018-10-10 20:20:00+00:00,222.4164,11.2,13.84,47.84626,-54.09684
2018-10-10 20:30:00+00:00,227.4298,11.22,13.84,47.84626,-54.09684
2018-10-10 20:40:00+00:00,233.4864,11.24,13.76,47.84626,-54.09684
2018-10-10 20:50:00+00:00,238.0631,11.26,13.68,47.84626,-54.09684
2018-10-10 21:00:00+00:00,247.3465,11.28,13.6,47.84626,-54.09684
2018-10-10 21:10:00+00:00,257.6864,11.24,13.44,47.84626,-54.09684
2018-10-10 21:20:00+00:00,263.1581,11.26,13.44,47.84626,-54.09684
2018-10-10 21:30:00+00:00,263.4931,11.27,13.37,47.84626,-54.09684
2018-10-10 21:40:00+00:00,264.6597,11.2,13.37,47.84626,-54.09684
2018-10-10 21:50:00+00:00,278.2114,11.2,13.37,47.84626,-54.09684
2018-10-10 22:00:00+00:00,285.5814,11.2,13.29,47.84626,-54.09684
2018-10-10 22:10:00+00:00,285.0197,11.1,13.13,47.84626,-54.09684
2018-10-10 22:20:00+00:00,295.9347,11.1,13.21,47.84626,-54.09684
2018-10-10 22:30:00+00:00,313.3763,11.1,13.21,47.84626,-54.09684
2018-10-10 22:40:00+00:00,314.4547,11.1,13.21,47.84626,-54.09684
2018-10-10 22:50:00+00:00,316.7364,11.1,13.21,47.84626,-54.09684
2018-10-10 23:00:00+00:00,337.2264,11.08,13.13,47.84626,-54.09684
2018-10-10 23:10:00+00:00,352.8829,11.0,13.05,47.84626,-54.09684
2018-10-10 23:20:00+00:00,350.1281,11.0,13.05,47.84626,-54.09684
2018-10-10 23:30:00+00:00,354.1279,11.04,13.05,47.84626,-54.09684
2018-10-10 23:40:00+00:00,368.7029,11.03,13.13,47.84626,-54.09684
2018-10-10 23:50:00+00:00,372.8945,11.0,13.13,47.84626,-54.09684
